Location: Ariel
(45.9570°N, 122.5700°W)
Time: 00:26:34
(UTC-07:00)

Tiros 1 - Pass Details

Date: 25 July 2019
Orbit: 631 x 664 km, 48.4° (Epoch: 23 August)

Event Time Altitude Azimuth Distance (km) Brightness Sun altitude
Rises 12:02:23 0° 233° (SW) 2,972 10.6 59.5°
Reaches altitude 10° 12:04:44 10° 230° (SW) 2,067 9.9 59.7°
Maximum altitude 12:09:25 57° 152° (SSE) 777 11.0 60.2°
Drops below altitude 10° 12:14:09 10° 74° (ENE) 2,084 10.0 60.6°
Sets 12:16:32 0° 71° (ENE) 2,999 10.6 60.9°
